KLM166 KAUS-EHAM

Flight info

Callsign KLM166
Flight time N/A
Altitude 37000
Route ILEXY4 ZENZI DCT LFK DCT SQS DCT KT30O DCT VXV DCT ALEAN Q40 MAULS DCT CSN DCT RBV DCT RIFLE DCT ACK/N0470F390 DCT BRADD N175G PORTI/M084F390 DCT 47N050W 49N040W 51N030W 53N020W DCT MALOT/N0483F390 DCT GISTI/N0487F410 DCT KORAK DCT LIFFY DCT DOLAS L603 LAMSO
Aircraft B772/H-VGDW/C

Departure

Time 2026-05-05 22:40
Airport Austin Bergstrom International Airport (KAUS)

Arrival

Time N/A
Airport Amsterdam Airport Schiphol (EHAM)
Time Latitude Longitude Altitude Speed Heading
2026-05-05 22:08 30.20215 -97.66207 532 ft 0 kts 288°
2026-05-05 22:15 30.20214 -97.66207 532 ft 0 kts 288°
2026-05-05 22:16 30.20214 -97.66206 532 ft 0 kts 288°
2026-05-05 22:26 30.20214 -97.66205 532 ft 0 kts 288°
2026-05-05 22:28 30.20208 -97.66179 537 ft 4 kts 272°
2026-05-05 22:28 30.20212 -97.66149 540 ft 4 kts 239°
2026-05-05 22:28 30.20230 -97.66129 537 ft 4 kts 201°
2026-05-05 22:29 30.20255 -97.66123 537 ft 3 kts 179°
2026-05-05 22:29 30.20257 -97.66123 535 ft 3 kts 178°
2026-05-05 22:32 30.20255 -97.66123 537 ft 2 kts 178°
2026-05-05 22:32 30.20231 -97.66122 535 ft 5 kts 178°
2026-05-05 22:32 30.20196 -97.66121 535 ft 5 kts 178°
2026-05-05 22:32 30.20160 -97.66119 532 ft 5 kts 178°
2026-05-05 22:33 30.20124 -97.66118 532 ft 5 kts 179°
2026-05-05 22:33 30.20089 -97.66117 532 ft 5 kts 179°
2026-05-05 22:33 30.20055 -97.66125 532 ft 5 kts 210°
2026-05-05 22:33 30.20038 -97.66163 532 ft 6 kts 257°
2026-05-05 22:34 30.20035 -97.66218 532 ft 7 kts 268°
2026-05-05 22:34 30.20033 -97.66276 532 ft 8 kts 269°
2026-05-05 22:34 30.20033 -97.66339 532 ft 8 kts 269°
2026-05-05 22:34 30.20005 -97.66385 532 ft 7 kts 202°
2026-05-05 22:35 30.19954 -97.66390 532 ft 7 kts 177°
2026-05-05 22:35 30.19916 -97.66355 532 ft 7 kts 110°
2026-05-05 22:35 30.19915 -97.66294 532 ft 9 kts 89°
2026-05-05 22:35 30.19916 -97.66225 532 ft 9 kts 88°
2026-05-05 22:36 30.19917 -97.66149 532 ft 10 kts 89°
2026-05-05 22:36 30.19919 -97.66070 532 ft 10 kts 89°
2026-05-05 22:36 30.19931 -97.66007 531 ft 7 kts 54°
2026-05-05 22:36 30.19978 -97.65990 531 ft 8 kts
2026-05-05 22:37 30.20034 -97.65992 531 ft 8 kts 358°
2026-05-05 22:37 30.20090 -97.65993 532 ft 8 kts 359°
2026-05-05 22:37 30.20154 -97.65995 532 ft 10 kts 359°
2026-05-05 22:37 30.20223 -97.65997 532 ft 10 kts 358°
2026-05-05 22:38 30.20291 -97.65998 532 ft 10 kts 360°
2026-05-05 22:38 30.20352 -97.65986 532 ft 9 kts 34°
2026-05-05 22:38 30.20369 -97.65923 532 ft 9 kts 86°
2026-05-05 22:38 30.20371 -97.65855 533 ft 9 kts 89°
2026-05-05 22:39 30.20360 -97.65796 533 ft 7 kts 133°
2026-05-05 22:39 30.20309 -97.65789 532 ft 17 kts 179°
2026-05-05 22:39 30.19971 -97.65780 530 ft 82 kts 178°
2026-05-05 22:39 30.19214 -97.65760 534 ft 138 kts 179°
2026-05-05 22:40 30.18101 -97.65732 721 ft 173 kts 178°
2026-05-05 22:40 30.16863 -97.65565 1352 ft 180 kts 162°
2026-05-05 22:40 30.15798 -97.64871 2204 ft 173 kts 152°
2026-05-05 22:40 30.14721 -97.64126 2474 ft 191 kts 149°
2026-05-05 22:41 30.13898 -97.62860 2628 ft 213 kts 107°
2026-05-05 22:41 30.14046 -97.61070 2774 ft 240 kts 68°
2026-05-05 22:41 30.14854 -97.59282 2926 ft 261 kts 65°
2026-05-05 22:41 30.15715 -97.57373 3226 ft 273 kts 67°
2026-05-05 22:42 30.16577 -97.55396 3739 ft 279 kts 67°
2026-05-05 22:42 30.17435 -97.53375 4299 ft 281 kts 66°
2026-05-05 22:42 30.18288 -97.51318 4802 ft 289 kts 68°
2026-05-05 22:42 30.19155 -97.49184 5233 ft 296 kts 66°
2026-05-05 22:43 30.20029 -97.47009 5787 ft 300 kts 66°
2026-05-05 22:43 30.20909 -97.44795 6308 ft 305 kts 65°
2026-05-05 22:43 30.21798 -97.42547 6781 ft 309 kts 66°
2026-05-05 22:43 30.22688 -97.40284 7352 ft 310 kts 66°
2026-05-05 22:44 30.23579 -97.38010 7876 ft 311 kts 66°
2026-05-05 22:44 30.24474 -97.35721 8398 ft 314 kts 67°
2026-05-05 22:44 30.25371 -97.33420 8944 ft 315 kts 67°
2026-05-05 22:44 30.26278 -97.31098 9411 ft 318 kts 67°
2026-05-05 22:45 30.27188 -97.28764 9829 ft 320 kts 67°
2026-05-05 22:45 30.28099 -97.26422 10168 ft 328 kts 67°
2026-05-05 22:45 30.29061 -97.23946 10279 ft 345 kts 67°
2026-05-05 22:45 30.30067 -97.21358 10392 ft 361 kts 66°
2026-05-05 22:46 30.31123 -97.18641 10527 ft 379 kts 66°
2026-05-05 22:46 30.32231 -97.15789 10689 ft 398 kts 66°
2026-05-05 22:46 30.33385 -97.12815 11033 ft 411 kts 66°
2026-05-05 22:46 30.34436 -97.09713 11437 ft 419 kts 75°
2026-05-05 22:47 30.35001 -97.06380 12034 ft 424 kts 86°
2026-05-05 22:47 30.35101 -97.02962 12674 ft 427 kts 95°
2026-05-05 22:47 30.34871 -96.99517 13237 ft 432 kts 97°
2026-05-05 22:47 30.34618 -96.96017 13767 ft 439 kts 97°
2026-05-05 22:48 30.34379 -96.92483 14325 ft 443 kts 96°
2026-05-05 22:48 30.34155 -96.88920 14901 ft 446 kts 96°
2026-05-05 22:48 30.33940 -96.85327 15476 ft 449 kts 96°
2026-05-05 22:48 30.33725 -96.81705 16032 ft 453 kts 96°
2026-05-05 22:49 30.33504 -96.78048 16553 ft 456 kts 96°
2026-05-05 22:49 30.33279 -96.74416 17083 ft 460 kts 96°
2026-05-05 22:49 30.33048 -96.70704 17598 ft 464 kts 96°
2026-05-05 22:49 30.32813 -96.66963 18091 ft 468 kts 96°
2026-05-05 22:50 30.32577 -96.63191 18499 ft 472 kts 96°
2026-05-05 22:50 30.32337 -96.59386 18875 ft 477 kts 96°
2026-05-05 22:50 30.32095 -96.55533 19194 ft 482 kts 96°
2026-05-05 22:50 30.31849 -96.51648 19570 ft 486 kts 96°
2026-05-05 22:51 30.31600 -96.47728 19951 ft 490 kts 96°
2026-05-05 22:51 30.31349 -96.43774 20336 ft 495 kts 96°
2026-05-05 22:51 30.31098 -96.39791 20709 ft 499 kts 96°
2026-05-05 22:51 30.30842 -96.35770 21051 ft 503 kts 96°
2026-05-05 22:52 30.30584 -96.31720 21407 ft 507 kts 96°
2026-05-05 22:52 30.30322 -96.27636 21753 ft 511 kts 96°
2026-05-05 22:52 30.30056 -96.23510 22081 ft 515 kts 96°
2026-05-05 22:52 30.29788 -96.19358 22416 ft 519 kts 96°
2026-05-05 22:53 30.29516 -96.15177 22735 ft 523 kts 96°
2026-05-05 22:53 30.29322 -96.10973 22973 ft 525 kts 89°
2026-05-05 22:53 30.29811 -96.06768 23171 ft 531 kts 73°
2026-05-05 22:53 30.31081 -96.02776 23478 ft 528 kts 60°
2026-05-05 22:54 30.32986 -95.99188 23789 ft 517 kts 47°
2026-05-05 22:54 30.35234 -95.95930 23941 ft 522 kts 46°
2026-05-05 22:54 30.37512 -95.92624 24211 ft 527 kts 46°
2026-05-05 22:54 30.39750 -95.89327 24641 ft 529 kts 47°
2026-05-05 22:55 30.42007 -95.85958 24974 ft 531 kts 47°
2026-05-05 22:55 30.44260 -95.82557 25282 ft 533 kts 47°
2026-05-05 22:55 30.46516 -95.79131 25567 ft 537 kts 47°
2026-05-05 22:55 30.48791 -95.75666 25870 ft 540 kts 47°
2026-05-05 22:56 30.51069 -95.72189 26153 ft 543 kts 47°
2026-05-05 22:56 30.53357 -95.68695 26456 ft 545 kts 47°
2026-05-05 22:56 30.55651 -95.65192 26790 ft 546 kts 47°
2026-05-05 22:56 30.57955 -95.61673 27054 ft 549 kts 47°
2026-05-05 22:57 30.60273 -95.58132 27304 ft 552 kts 47°
2026-05-05 22:57 30.62603 -95.54572 27550 ft 555 kts 47°
2026-05-05 22:57 30.64941 -95.50994 27799 ft 558 kts 47°
2026-05-05 22:57 30.67291 -95.47395 28045 ft 560 kts 47°
2026-05-05 22:58 30.69653 -95.43773 28296 ft 562 kts 47°
2026-05-05 22:58 30.72017 -95.40144 28531 ft 564 kts 47°
2026-05-05 22:58 30.74388 -95.36502 28750 ft 567 kts 47°
2026-05-05 22:58 30.76770 -95.32839 28998 ft 568 kts 47°
2026-05-05 22:59 30.79125 -95.29212 29277 ft 569 kts 47°
2026-05-05 22:59 30.81513 -95.25533 29506 ft 571 kts 47°
2026-05-05 22:59 30.83908 -95.21842 29704 ft 573 kts 47°
2026-05-05 22:59 30.86319 -95.18121 29901 ft 576 kts 47°
2026-05-05 23:00 30.91144 -95.10663 30307 ft 577 kts 47°
2026-05-05 23:00 30.93555 -95.06930 30576 ft 576 kts 47°
2026-05-05 23:00 30.95959 -95.03202 30860 ft 576 kts 47°
2026-05-05 23:01 30.98366 -94.99469 31123 ft 575 kts 47°
2026-05-05 23:01 31.00764 -94.95747 31384 ft 575 kts 47°
2026-05-05 23:01 31.03164 -94.92018 31678 ft 574 kts 47°
2026-05-05 23:01 31.05558 -94.88295 31993 ft 573 kts 47°
2026-05-05 23:02 31.07948 -94.84575 32265 ft 573 kts 47°
2026-05-05 23:02 31.10336 -94.80855 32497 ft 573 kts 47°
2026-05-05 23:02 31.12724 -94.77131 32765 ft 573 kts 47°
2026-05-05 23:02 31.15113 -94.73402 33063 ft 572 kts 48°
2026-05-05 23:03 31.17400 -94.69657 33325 ft 576 kts 51°
2026-05-05 23:03 31.19593 -94.65732 33529 ft 578 kts 52°
2026-05-05 23:03 31.21755 -94.61765 33789 ft 578 kts 53°
2026-05-05 23:03 31.23898 -94.57793 34073 ft 577 kts 53°
2026-05-05 23:04 31.26028 -94.53835 34443 ft 573 kts 52°
2026-05-05 23:04 31.28147 -94.49908 34824 ft 569 kts 52°
2026-05-05 23:04 31.30263 -94.46006 35172 ft 566 kts 52°
2026-05-05 23:04 31.32372 -94.42130 35489 ft 564 kts 52°
2026-05-05 23:05 31.34483 -94.38258 35768 ft 563 kts 52°
2026-05-05 23:05 31.36589 -94.34396 36030 ft 562 kts 51°
2026-05-05 23:05 31.38693 -94.30536 36289 ft 561 kts 51°
2026-05-05 23:05 31.40791 -94.26681 36546 ft 560 kts 51°
2026-05-05 23:06 31.42880 -94.22835 36755 ft 560 kts 51°
2026-05-05 23:06 31.44948 -94.19027 36801 ft 563 kts 51°
2026-05-05 23:06 31.49153 -94.11266 36832 ft 563 kts 51°
2026-05-05 23:07 31.53310 -94.03558 36816 ft 556 kts 51°
2026-05-05 23:07 31.57442 -93.95894 36829 ft 556 kts 51°
2026-05-05 23:08 31.61571 -93.88226 36827 ft 556 kts 51°
2026-05-05 23:08 31.65704 -93.80537 36818 ft 557 kts 51°
2026-05-05 23:09 31.69823 -93.72853 36823 ft 556 kts 51°
2026-05-05 23:09 31.73939 -93.65156 36821 ft 556 kts 51°
2026-05-05 23:10 31.78023 -93.57507 36835 ft 556 kts 51°
2026-05-05 23:10 31.82132 -93.49793 36820 ft 556 kts 51°
2026-05-05 23:11 31.86228 -93.42091 36826 ft 555 kts 51°
2026-05-05 23:11 31.90320 -93.34379 36835 ft 555 kts 51°
2026-05-05 23:12 31.94403 -93.26669 36834 ft 555 kts 51°
2026-05-05 23:12 31.98498 -93.18926 36856 ft 560 kts 51°
2026-05-05 23:13 32.02641 -93.11079 36849 ft 566 kts 52°
2026-05-05 23:13 32.06817 -93.03149 36827 ft 572 kts 52°
2026-05-05 23:14 32.10988 -92.95203 36838 ft 575 kts 52°
2026-05-05 23:14 32.15197 -92.87165 36834 ft 576 kts 52°
2026-05-05 23:15 32.19410 -92.79107 36832 ft 577 kts 52°
2026-05-05 23:15 32.23622 -92.71033 36844 ft 576 kts 52°
2026-05-05 23:16 32.27112 -92.64330 36843 ft 576 kts 52°
2026-05-05 23:16 32.31299 -92.56275 36847 ft 574 kts 52°
2026-05-05 23:17 32.35470 -92.48235 36836 ft 573 kts 52°
2026-05-05 23:17 32.39626 -92.40204 36836 ft 572 kts 52°
2026-05-05 23:18 32.43767 -92.32187 36837 ft 570 kts 52°
2026-05-05 23:18 32.47903 -92.24163 36859 ft 569 kts 51°
2026-05-05 23:19 32.52020 -92.16158 36851 ft 569 kts 51°
2026-05-05 23:19 32.56100 -92.08209 36848 ft 568 kts 51°
2026-05-05 23:20 32.60205 -92.00193 36854 ft 568 kts 52°
2026-05-05 23:20 32.64310 -91.92161 36869 ft 570 kts 52°
2026-05-05 23:21 32.68415 -91.84112 36849 ft 571 kts 51°
2026-05-05 23:21 32.72525 -91.76033 36849 ft 571 kts 51°
2026-05-05 23:22 32.76629 -91.67947 36858 ft 572 kts 52°
2026-05-05 23:22 32.80732 -91.59848 36863 ft 572 kts 52°
2026-05-05 23:23 32.84830 -91.51738 36866 ft 572 kts 51°
2026-05-05 23:23 32.88927 -91.43614 36919 ft 572 kts 51°
2026-05-05 23:24 32.93022 -91.35481 36886 ft 574 kts 51°
2026-05-05 23:24 32.97120 -91.27319 36862 ft 574 kts 51°
2026-05-05 23:25 33.01189 -91.19193 36868 ft 575 kts 51°
2026-05-05 23:25 33.05283 -91.11004 36876 ft 575 kts 51°
2026-05-05 23:26 33.09374 -91.02800 36864 ft 575 kts 51°
2026-05-05 23:26 33.13463 -90.94584 36859 ft 576 kts 51°
2026-05-05 23:27 33.17547 -90.86358 36883 ft 577 kts 51°
2026-05-05 23:27 33.21636 -90.78105 36870 ft 577 kts 51°
2026-05-05 23:28 33.25716 -90.69849 36869 ft 577 kts 51°
2026-05-05 23:28 33.29793 -90.61581 36863 ft 577 kts 51°
2026-05-05 23:29 33.33861 -90.53311 36865 ft 577 kts 51°
2026-05-05 23:29 33.37926 -90.45030 36865 ft 577 kts 51°
2026-05-05 23:30 33.41984 -90.36743 36851 ft 577 kts 51°
2026-05-05 23:30 33.46000 -90.28506 36870 ft 576 kts 53°
2026-05-05 23:31 33.49547 -90.19828 36887 ft 582 kts 58°
2026-05-05 23:31 33.52857 -90.10976 36877 ft 582 kts 59°
2026-05-05 23:32 33.56167 -90.02125 36879 ft 581 kts 58°
2026-05-05 23:32 33.59502 -89.93305 36885 ft 581 kts 58°
2026-05-05 23:33 33.62852 -89.84482 36876 ft 580 kts 58°
2026-05-05 23:33 33.66188 -89.75668 36876 ft 580 kts 58°
2026-05-05 23:34 33.69512 -89.66851 36909 ft 580 kts 58°
2026-05-05 23:34 33.72840 -89.57995 36885 ft 581 kts 58°
2026-05-05 23:35 33.76158 -89.49140 36882 ft 581 kts 58°
2026-05-05 23:35 33.79469 -89.40280 36880 ft 581 kts 58°
2026-05-05 23:36 33.82777 -89.31405 36881 ft 581 kts 58°
2026-05-05 23:36 33.86078 -89.22526 36909 ft 581 kts 58°
2026-05-05 23:37 33.89372 -89.13643 36888 ft 582 kts 58°
2026-05-05 23:37 33.92663 -89.04742 36895 ft 581 kts 58°
2026-05-05 23:38 33.95925 -88.95895 36924 ft 582 kts 58°
2026-05-05 23:38 33.99208 -88.86972 36904 ft 582 kts 58°
2026-05-05 23:39 34.02482 -88.78043 36907 ft 582 kts 58°
2026-05-05 23:39 34.05746 -88.69117 36899 ft 582 kts 58°
2026-05-05 23:40 34.09007 -88.60176 36894 ft 581 kts 58°
2026-05-05 23:40 34.12255 -88.51246 36893 ft 581 kts 58°
2026-05-05 23:41 34.15493 -88.42320 36893 ft 580 kts 58°
2026-05-05 23:41 34.18722 -88.33394 36885 ft 580 kts 58°
2026-05-05 23:42 34.21937 -88.24459 36920 ft 579 kts 58°
2026-05-05 23:42 34.25115 -88.15570 36916 ft 579 kts 58°
2026-05-05 23:43 34.28311 -88.06637 36913 ft 578 kts 58°
2026-05-05 23:43 34.31546 -87.97746 36926 ft 577 kts 58°
2026-05-05 23:44 34.34841 -87.88907 36917 ft 575 kts 57°
2026-05-05 23:44 34.38169 -87.80108 36915 ft 575 kts 57°
2026-05-05 23:45 34.41512 -87.71320 36903 ft 574 kts 57°
2026-05-05 23:45 34.44872 -87.62565 36920 ft 572 kts 56°
2026-05-05 23:46 34.48196 -87.53809 36979 ft 571 kts 57°
2026-05-05 23:46 34.51453 -87.45028 36980 ft 571 kts 57°
2026-05-05 23:47 34.54658 -87.36193 36983 ft 571 kts 58°
2026-05-05 23:47 34.57798 -87.27332 36993 ft 572 kts 58°
2026-05-05 23:48 34.60876 -87.18425 37013 ft 572 kts 59°
2026-05-05 23:48 34.63913 -87.09485 37014 ft 573 kts 59°
2026-05-05 23:49 34.66925 -87.00524 37010 ft 573 kts 59°
2026-05-05 23:49 34.69921 -86.91539 37069 ft 574 kts 59°
2026-05-05 23:50 34.72904 -86.82541 37069 ft 574 kts 59°
2026-05-05 23:50 34.75881 -86.73542 37060 ft 574 kts 59°
2026-05-05 23:51 34.78841 -86.64599 37065 ft 574 kts 60°
2026-05-05 23:51 34.81836 -86.55597 37044 ft 573 kts 59°
2026-05-05 23:52 34.84851 -86.46621 37040 ft 573 kts 59°
2026-05-05 23:52 34.87888 -86.37662 37037 ft 571 kts 59°
2026-05-05 23:53 34.90937 -86.28721 37025 ft 571 kts 58°
2026-05-05 23:53 34.94005 -86.19813 37031 ft 571 kts 59°
2026-05-05 23:54 34.96800 -86.10713 37012 ft 575 kts 63°
2026-05-05 23:54 34.99410 -86.01508 36938 ft 570 kts 59°
2026-05-05 23:55 35.01060 -85.97164 36942 ft 558 kts 51°
2026-05-05 23:55 35.02936 -85.93061 36942 ft 556 kts 50°
2026-05-05 23:55 35.06689 -85.84840 36944 ft 557 kts 51°
2026-05-05 23:56 35.10398 -85.76520 36941 ft 558 kts 52°
2026-05-05 23:56 35.14067 -85.68168 36943 ft 558 kts 52°
2026-05-05 23:57 35.17733 -85.59790 36962 ft 558 kts 52°
2026-05-05 23:57 35.21400 -85.51402 36938 ft 558 kts 52°
2026-05-05 23:58 35.25057 -85.43031 36943 ft 558 kts 52°
2026-05-05 23:58 35.28709 -85.34649 36929 ft 558 kts 52°
2026-05-05 23:59 35.32352 -85.26266 36925 ft 557 kts 52°
2026-05-05 23:59 35.35959 -85.17941 36936 ft 557 kts 52°
2026-05-06 00:00 35.39586 -85.09561 36929 ft 556 kts 52°
2026-05-06 00:00 35.43203 -85.01168 36938 ft 556 kts 52°
2026-05-06 00:01 35.46804 -84.92790 36932 ft 555 kts 52°
2026-05-06 00:01 35.49791 -84.85831 36939 ft 554 kts 53°
2026-05-06 00:02 35.53372 -84.77468 36946 ft 553 kts 53°
2026-05-06 00:02 35.56943 -84.69110 36956 ft 552 kts 53°
2026-05-06 00:03 35.60503 -84.60756 36946 ft 551 kts 53°
2026-05-06 00:03 35.64048 -84.52416 36971 ft 550 kts 53°
2026-05-06 00:04 35.67587 -84.44068 36953 ft 549 kts 53°
2026-05-06 00:04 35.71088 -84.35789 36926 ft 549 kts 53°
2026-05-06 00:05 35.76363 -84.23277 36937 ft 548 kts 53°
2026-05-06 00:06 35.79870 -84.14931 36939 ft 547 kts 53°
2026-05-06 00:06 35.83362 -84.06599 36922 ft 547 kts 53°
2026-05-06 00:07 35.86845 -83.98269 36929 ft 547 kts 53°
2026-05-06 00:07 35.90322 -83.89932 36903 ft 546 kts 53°
2026-05-06 00:08 35.93629 -83.81540 36919 ft 549 kts 56°
2026-05-06 00:08 35.96789 -83.72972 36924 ft 548 kts 57°
2026-05-06 00:09 35.99943 -83.64408 36919 ft 546 kts 56°
2026-05-06 00:09 36.03112 -83.55896 36918 ft 545 kts 56°
2026-05-06 00:10 36.06292 -83.47386 36919 ft 544 kts 56°
2026-05-06 00:10 36.09463 -83.38877 36951 ft 545 kts 57°
2026-05-06 00:11 36.12627 -83.30354 36958 ft 545 kts 56°
2026-05-06 00:11 36.15763 -83.21879 36946 ft 545 kts 57°
2026-05-06 00:12 36.18912 -83.13346 36943 ft 545 kts 57°
2026-05-06 00:12 36.22054 -83.04804 36942 ft 545 kts 57°
2026-05-06 00:13 36.25195 -82.96247 36955 ft 545 kts 57°
2026-05-06 00:13 36.28333 -82.87675 36960 ft 545 kts 57°
2026-05-06 00:14 36.31463 -82.79102 36964 ft 547 kts 57°
2026-05-06 00:14 36.34592 -82.70505 36955 ft 547 kts 57°
2026-05-06 00:15 36.37710 -82.61910 36932 ft 546 kts 57°
2026-05-06 00:15 36.40799 -82.53374 36932 ft 545 kts 57°
2026-05-06 00:16 36.43895 -82.44797 36964 ft 544 kts 57°
2026-05-06 00:16 36.46982 -82.36223 36973 ft 543 kts 57°
2026-05-06 00:17 36.50058 -82.27656 36996 ft 542 kts 57°
2026-05-06 00:17 36.53129 -82.19078 36961 ft 543 kts 58°
2026-05-06 00:18 36.56195 -82.10490 36942 ft 544 kts 58°
2026-05-06 00:18 36.59239 -82.01938 36977 ft 544 kts 58°
2026-05-06 00:19 36.62291 -81.93337 36974 ft 544 kts 58°
2026-05-06 00:19 36.65346 -81.84708 36970 ft 544 kts 58°
2026-05-06 00:20 36.68393 -81.76074 36966 ft 544 kts 58°
2026-05-06 00:20 36.71434 -81.67435 36973 ft 545 kts 58°
2026-05-06 00:21 36.74745 -81.58999 36935 ft 535 kts 50°
2026-05-06 00:21 36.78692 -81.51186 37011 ft 532 kts 48°
2026-05-06 00:22 36.82591 -81.43403 37044 ft 532 kts 49°
2026-05-06 00:22 36.86463 -81.35508 37034 ft 533 kts 49°
2026-05-06 00:23 36.90333 -81.27615 37046 ft 533 kts 49°
2026-05-06 00:23 36.94203 -81.19712 37025 ft 533 kts 49°
2026-05-06 00:24 36.98058 -81.11809 36995 ft 533 kts 50°
2026-05-06 00:24 37.01621 -81.03627 36978 ft 538 kts 54°
2026-05-06 00:25 37.04989 -80.95260 36959 ft 538 kts 54°
2026-05-06 00:25 37.08335 -80.86961 36998 ft 536 kts 54°
2026-05-06 00:26 37.11740 -80.78663 37017 ft 535 kts 53°
2026-05-06 00:26 37.15165 -80.70364 36999 ft 536 kts 53°
2026-05-06 00:27 37.18584 -80.62058 37008 ft 536 kts 53°
2026-05-06 00:27 37.21998 -80.53726 37028 ft 537 kts 53°
2026-05-06 00:28 37.25403 -80.45388 37026 ft 536 kts 53°
2026-05-06 00:28 37.28797 -80.37054 36959 ft 536 kts 53°
2026-05-06 00:29 37.32182 -80.28717 36994 ft 534 kts 54°
2026-05-06 00:29 37.35550 -80.20404 36998 ft 534 kts 53°
2026-05-06 00:30 37.38910 -80.12114 36957 ft 537 kts 54°
2026-05-06 00:30 37.42273 -80.03759 36988 ft 535 kts 54°
2026-05-06 00:31 37.45641 -79.95390 36978 ft 537 kts 54°
2026-05-06 00:31 37.49010 -79.86991 36974 ft 538 kts 54°
2026-05-06 00:32 37.52378 -79.78572 36973 ft 539 kts 54°
2026-05-06 00:32 37.55734 -79.70148 36963 ft 537 kts 54°
2026-05-06 00:33 37.59067 -79.61735 36962 ft 536 kts 54°
2026-05-06 00:33 37.62404 -79.53351 36956 ft 534 kts 54°
2026-05-06 00:34 37.65715 -79.44993 36999 ft 532 kts 54°
2026-05-06 00:34 37.69018 -79.36628 37006 ft 532 kts 54°
2026-05-06 00:35 37.72311 -79.28260 36987 ft 532 kts 55°
2026-05-06 00:35 37.75594 -79.19884 36979 ft 532 kts 55°
2026-05-06 00:36 37.78872 -79.11490 36956 ft 531 kts 55°
2026-05-06 00:36 37.82142 -79.03126 36941 ft 531 kts 55°
2026-05-06 00:37 37.85413 -78.94755 36943 ft 531 kts 56°
2026-05-06 00:37 37.88676 -78.86354 36930 ft 532 kts 56°
2026-05-06 00:38 37.91934 -78.77929 36927 ft 532 kts 56°
2026-05-06 00:38 37.95164 -78.69556 36904 ft 532 kts 56°
2026-05-06 00:39 37.98406 -78.61127 36913 ft 530 kts 56°
2026-05-06 00:39 38.01638 -78.52729 36926 ft 530 kts 56°
2026-05-06 00:40 38.04859 -78.44324 36927 ft 530 kts 56°
2026-05-06 00:40 38.08070 -78.35917 36961 ft 529 kts 56°
2026-05-06 00:41 38.11284 -78.27474 36915 ft 530 kts 56°
2026-05-06 00:41 38.14483 -78.19055 36930 ft 530 kts 56°
2026-05-06 00:42 38.17662 -78.10665 36926 ft 530 kts 56°
2026-05-06 00:42 38.20852 -78.02223 36936 ft 530 kts 57°
2026-05-06 00:43 38.24037 -77.93769 36933 ft 529 kts 57°
2026-05-06 00:43 38.27212 -77.85317 36956 ft 529 kts 57°
2026-05-06 00:44 38.30384 -77.76852 36926 ft 530 kts 57°
2026-05-06 00:44 38.33545 -77.68389 36926 ft 529 kts 57°
2026-05-06 00:45 38.36699 -77.59923 36925 ft 529 kts 57°
2026-05-06 00:45 38.39845 -77.51454 36933 ft 528 kts 58°
2026-05-06 00:46 38.43121 -77.43105 36928 ft 521 kts 51°
2026-05-06 00:46 38.47317 -77.35744 36923 ft 509 kts 43°
2026-05-06 00:47 38.51791 -77.28801 36925 ft 509 kts 43°
2026-05-06 00:47 38.56262 -77.21772 36924 ft 510 kts 44°
2026-05-06 00:48 38.60706 -77.14705 36920 ft 510 kts 44°
2026-05-06 00:48 38.65139 -77.07618 36935 ft 511 kts 44°
2026-05-06 00:49 38.69576 -77.00510 36885 ft 511 kts 44°
2026-05-06 00:49 38.73267 -76.94587 36900 ft 511 kts 44°
2026-05-06 00:50 38.77707 -76.87452 36900 ft 512 kts 44°
2026-05-06 00:50 38.82139 -76.80316 36902 ft 511 kts 45°
2026-05-06 00:51 38.86568 -76.73164 36899 ft 512 kts 45°
2026-05-06 00:51 38.90997 -76.65998 36901 ft 512 kts 45°
2026-05-06 00:52 38.95419 -76.58827 36921 ft 512 kts 45°
2026-05-06 00:52 38.99840 -76.51641 36919 ft 512 kts 45°
2026-05-06 00:53 39.04257 -76.44448 36907 ft 513 kts 45°
2026-05-06 00:53 39.08678 -76.37230 36912 ft 513 kts 45°
2026-05-06 00:54 39.13093 -76.30003 36907 ft 513 kts 45°
2026-05-06 00:54 39.17500 -76.22776 36913 ft 513 kts 45°
2026-05-06 00:55 39.21871 -76.15593 36924 ft 513 kts 45°
2026-05-06 00:55 39.26278 -76.08333 36914 ft 514 kts 45°
2026-05-06 00:56 39.30678 -76.01067 36911 ft 513 kts 45°
2026-05-06 00:56 39.35070 -75.93797 36912 ft 513 kts 45°
2026-05-06 00:57 39.39460 -75.86515 36939 ft 513 kts 46°
2026-05-06 00:57 39.43853 -75.79214 36913 ft 514 kts 46°
2026-05-06 00:58 39.48237 -75.71908 36913 ft 514 kts 46°
2026-05-06 00:58 39.52613 -75.64597 36916 ft 513 kts 46°
2026-05-06 00:59 39.56983 -75.57282 36914 ft 513 kts 46°
2026-05-06 00:59 39.61350 -75.49955 36907 ft 513 kts 46°
2026-05-06 01:00 39.65708 -75.42625 36916 ft 513 kts 46°
2026-05-06 01:00 39.70034 -75.35336 36907 ft 513 kts 46°
2026-05-06 01:01 39.74381 -75.27988 36918 ft 512 kts 46°
2026-05-06 01:01 39.78718 -75.20641 36923 ft 512 kts 46°
2026-05-06 01:02 39.83058 -75.13274 36900 ft 512 kts 46°
2026-05-06 01:02 39.87384 -75.05914 36912 ft 512 kts 47°
2026-05-06 01:03 39.91704 -74.98544 36925 ft 510 kts 47°
2026-05-06 01:03 39.96003 -74.91195 36922 ft 510 kts 47°
2026-05-06 01:04 40.00297 -74.83836 36924 ft 509 kts 47°
2026-05-06 01:04 40.04584 -74.76473 36927 ft 509 kts 47°
2026-05-06 01:05 40.08839 -74.69149 36915 ft 509 kts 47°
2026-05-06 01:05 40.13110 -74.61777 36916 ft 510 kts 47°
2026-05-06 01:06 40.17381 -74.54372 36903 ft 511 kts 49°
2026-05-06 01:06 40.20990 -74.46259 36926 ft 521 kts 60°
2026-05-06 01:07 40.23540 -74.37338 36942 ft 525 kts 67°
2026-05-06 01:07 40.25852 -74.28260 36953 ft 525 kts 68°
2026-05-06 01:08 40.28182 -74.19202 36957 ft 525 kts 67°
2026-05-06 01:08 40.30540 -74.10156 36946 ft 524 kts 67°
2026-05-06 01:09 40.32899 -74.01120 36914 ft 523 kts 67°
2026-05-06 01:09 40.35243 -73.92109 36936 ft 521 kts 68°
2026-05-06 01:10 40.37569 -73.83116 36916 ft 520 kts 68°
2026-05-06 01:10 40.39864 -73.74209 36932 ft 518 kts 68°
2026-05-06 01:11 40.42164 -73.65255 36936 ft 518 kts 68°
2026-05-06 01:11 40.44452 -73.56307 36934 ft 516 kts 69°
2026-05-06 01:12 40.46733 -73.47360 36942 ft 516 kts 69°
2026-05-06 01:12 40.49001 -73.38432 36937 ft 515 kts 69°
2026-05-06 01:13 40.51262 -73.29497 36946 ft 515 kts 69°
2026-05-06 01:13 40.53518 -73.20549 36950 ft 515 kts 69°
2026-05-06 01:14 40.56887 -73.07120 36963 ft 516 kts 70°
2026-05-06 01:14 40.59113 -72.98205 36950 ft 516 kts 70°
2026-05-06 01:15 40.61348 -72.89224 36974 ft 517 kts 70°
2026-05-06 01:15 40.63579 -72.80221 36974 ft 517 kts 70°
2026-05-06 01:16 40.65802 -72.71214 36962 ft 517 kts 70°
2026-05-06 01:16 40.68017 -72.62213 36979 ft 516 kts 70°
2026-05-06 01:17 40.70222 -72.53212 36986 ft 516 kts 70°
2026-05-06 01:17 40.72420 -72.44201 36978 ft 515 kts 70°
2026-05-06 01:18 40.74603 -72.35212 36984 ft 514 kts 70°
2026-05-06 01:18 40.76765 -72.26278 36987 ft 514 kts 70°
2026-05-06 01:19 40.78944 -72.17240 36999 ft 513 kts 70°
2026-05-06 01:19 40.81100 -72.08264 36993 ft 513 kts 70°
2026-05-06 01:20 40.83235 -71.99340 37004 ft 513 kts 70°
2026-05-06 01:20 40.85378 -71.90348 36977 ft 513 kts 70°
2026-05-06 01:21 40.87512 -71.81358 36985 ft 513 kts 70°
2026-05-06 01:21 40.89639 -71.72364 36985 ft 512 kts 70°
2026-05-06 01:22 40.91758 -71.63365 36986 ft 512 kts 70°
2026-05-06 01:22 40.93872 -71.54355 36982 ft 513 kts 70°
2026-05-06 01:23 40.95976 -71.45349 36981 ft 513 kts 70°
2026-05-06 01:23 40.98075 -71.36331 36984 ft 513 kts 71°
2026-05-06 01:24 41.00154 -71.27362 36987 ft 513 kts 71°
2026-05-06 01:24 41.02239 -71.18331 36989 ft 513 kts 71°
2026-05-06 01:25 41.04318 -71.09293 37015 ft 513 kts 71°
2026-05-06 01:25 41.06392 -71.00234 37022 ft 513 kts 71°
2026-05-06 01:26 41.08461 -70.91165 37022 ft 513 kts 71°
2026-05-06 01:26 41.10519 -70.82108 37007 ft 513 kts 71°
2026-05-06 01:27 41.12569 -70.73047 37016 ft 512 kts 71°
2026-05-06 01:27 41.14609 -70.63991 37003 ft 512 kts 71°
2026-05-06 01:28 41.16630 -70.54985 37011 ft 512 kts 71°
2026-05-06 01:28 41.18655 -70.45928 37002 ft 512 kts 72°
2026-05-06 01:29 41.20674 -70.36856 37005 ft 512 kts 72°
2026-05-06 01:29 41.22686 -70.27776 37034 ft 512 kts 72°
2026-05-06 01:30 41.24691 -70.18695 37025 ft 513 kts 72°
2026-05-06 01:30 41.26692 -70.09647 37049 ft 513 kts 70°
2026-05-06 01:31 41.29669 -70.01083 37045 ft 509 kts 56°
2026-05-06 01:31 41.33903 -69.93602 37026 ft 505 kts 46°
2026-05-06 01:32 41.38555 -69.86547 37160 ft 506 kts 46°
2026-05-06 01:32 41.40861 -69.83044 37615 ft 500 kts 46°
2026-05-06 01:32 41.43134 -69.79562 37981 ft 497 kts 46°
2026-05-06 01:33 41.45369 -69.76116 38107 ft 499 kts 46°
2026-05-06 01:33 41.47638 -69.72600 38149 ft 502 kts 47°
2026-05-06 01:33 41.49909 -69.69066 38417 ft 499 kts 47°
2026-05-06 01:33 41.52148 -69.65570 38838 ft 494 kts 47°
2026-05-06 01:34 41.54375 -69.62087 38945 ft 495 kts 47°
2026-05-06 01:34 41.56614 -69.58586 38985 ft 496 kts 47°
2026-05-06 01:34 41.61109 -69.51548 39029 ft 499 kts 47°
2026-05-06 01:35 41.65632 -69.44452 39025 ft 502 kts 47°
2026-05-06 01:35 41.69399 -69.38527 39048 ft 503 kts 47°
2026-05-06 01:36 41.73925 -69.31392 39038 ft 503 kts 47°
2026-05-06 01:36 41.78442 -69.24255 39042 ft 502 kts 47°
2026-05-06 01:37 41.82951 -69.17116 39026 ft 500 kts 47°
2026-05-06 01:37 41.87408 -69.10040 39042 ft 499 kts 47°
2026-05-06 01:38 41.91879 -69.02925 39044 ft 498 kts 47°
2026-05-06 01:38 41.96340 -68.95811 39044 ft 497 kts 47°
2026-05-06 01:39 42.00793 -68.88691 39041 ft 497 kts 47°
2026-05-06 01:39 42.05240 -68.81569 39054 ft 498 kts 48°
2026-05-06 01:40 42.09694 -68.74412 39044 ft 499 kts 48°
2026-05-06 01:40 42.14154 -68.67229 39049 ft 500 kts 48°
2026-05-06 01:41 42.18627 -68.60009 39042 ft 502 kts 48°
2026-05-06 01:41 42.23098 -68.52773 39044 ft 503 kts 48°
2026-05-06 01:42 42.27577 -68.45507 39048 ft 503 kts 48°
2026-05-06 01:42 42.32051 -68.38233 39044 ft 504 kts 48°
2026-05-06 01:43 42.36504 -68.30975 39050 ft 504 kts 48°
2026-05-06 01:43 42.40981 -68.23659 39047 ft 505 kts 48°
2026-05-06 01:44 42.45454 -68.16331 39033 ft 504 kts 49°
2026-05-06 01:44 42.49917 -68.09002 39048 ft 504 kts 49°
2026-05-06 01:45 42.54382 -68.01651 39030 ft 504 kts 49°
2026-05-06 01:45 42.58807 -67.94348 39031 ft 504 kts 49°
2026-05-06 01:46 42.63260 -67.86982 39029 ft 505 kts 49°
2026-05-06 01:46 42.67710 -67.79601 39035 ft 505 kts 49°
2026-05-06 01:47 42.72153 -67.72214 39035 ft 505 kts 49°
2026-05-06 01:47 42.76593 -67.64813 39056 ft 505 kts 49°
2026-05-06 01:48 42.81034 -67.57392 39040 ft 505 kts 49°
2026-05-06 01:48 42.85475 -67.49953 39032 ft 506 kts 49°
2026-05-06 01:49 42.89907 -67.42508 39030 ft 506 kts 49°
2026-05-06 01:49 42.94336 -67.35049 39032 ft 506 kts 49°
2026-05-06 01:50 42.98763 -67.27578 39037 ft 506 kts 49°
2026-05-06 01:50 43.03152 -67.20151 39033 ft 506 kts 49°
2026-05-06 01:51 43.07474 -67.12815 39029 ft 506 kts 49°
2026-05-06 01:51 43.11886 -67.05312 39032 ft 506 kts 50°
2026-05-06 01:52 43.15777 -66.97272 39031 ft 508 kts 61°
2026-05-06 01:52 43.18640 -66.88410 39044 ft 508 kts 67°
2026-05-06 01:53 43.21278 -66.79480 39028 ft 509 kts 68°
2026-05-06 01:53 43.23953 -66.70476 39022 ft 509 kts 67°
2026-05-06 01:54 43.26652 -66.61475 39028 ft 509 kts 67°
2026-05-06 01:54 43.29350 -66.52488 39026 ft 509 kts 67°
2026-05-06 01:55 43.32040 -66.43500 39023 ft 509 kts 67°
2026-05-06 01:55 43.34722 -66.34499 39023 ft 509 kts 68°
2026-05-06 01:56 43.37378 -66.25550 39025 ft 508 kts 68°
2026-05-06 01:56 43.40040 -66.16549 39026 ft 508 kts 68°
2026-05-06 01:57 43.42690 -66.07556 39030 ft 507 kts 68°
2026-05-06 01:57 43.45334 -65.98554 39040 ft 506 kts 68°
2026-05-06 01:58 43.47963 -65.89571 39038 ft 506 kts 68°
2026-05-06 01:58 43.50588 -65.80568 39038 ft 506 kts 68°
2026-05-06 01:59 43.53202 -65.71572 39048 ft 506 kts 68°
2026-05-06 01:59 43.55796 -65.62614 39044 ft 506 kts 68°
2026-05-06 02:00 43.58397 -65.53599 39060 ft 506 kts 68°
2026-05-06 02:00 43.60993 -65.44568 39062 ft 507 kts 68°
2026-05-06 02:01 43.63587 -65.35512 39075 ft 507 kts 68°
2026-05-06 02:01 43.66177 -65.26438 39061 ft 508 kts 68°
2026-05-06 02:02 43.68760 -65.17352 39060 ft 508 kts 68°
2026-05-06 02:02 43.71338 -65.08254 39063 ft 509 kts 68°
2026-05-06 02:03 43.73910 -64.99142 39064 ft 509 kts 68°
2026-05-06 02:03 43.76459 -64.90079 39066 ft 509 kts 68°
2026-05-06 02:04 43.79016 -64.80954 39064 ft 509 kts 68°
2026-05-06 02:04 43.81569 -64.71811 39062 ft 509 kts 68°
2026-05-06 02:05 43.84115 -64.62658 39071 ft 509 kts 68°
2026-05-06 02:05 43.86650 -64.53510 39070 ft 509 kts 68°
2026-05-06 02:06 43.89179 -64.44350 39085 ft 508 kts 68°
2026-05-06 02:06 43.91697 -64.35192 39084 ft 508 kts 68°
2026-05-06 02:07 43.94209 -64.26026 39084 ft 508 kts 68°
2026-05-06 02:07 43.96713 -64.16856 39098 ft 508 kts 69°
2026-05-06 02:08 43.99207 -64.07685 39098 ft 508 kts 69°
2026-05-06 02:08 44.01677 -63.98567 39108 ft 507 kts 69°
2026-05-06 02:09 44.04154 -63.89390 39111 ft 507 kts 69°
2026-05-06 02:09 44.06622 -63.80211 39111 ft 507 kts 69°
2026-05-06 02:10 44.09081 -63.71032 39112 ft 506 kts 69°
2026-05-06 02:10 44.11531 -63.61848 39101 ft 506 kts 69°
2026-05-06 02:11 44.13975 -63.52657 39103 ft 506 kts 69°
2026-05-06 02:11 44.16412 -63.43453 39102 ft 506 kts 69°
2026-05-06 02:12 44.18823 -63.34312 39108 ft 506 kts 69°
2026-05-06 02:12 44.21245 -63.25096 39103 ft 506 kts 69°
2026-05-06 02:13 44.23656 -63.15882 39106 ft 506 kts 69°
2026-05-06 02:13 44.26061 -63.06661 39120 ft 506 kts 70°
2026-05-06 02:14 44.28458 -62.97430 39128 ft 506 kts 70°
2026-05-06 02:14 44.30851 -62.88179 39125 ft 507 kts 70°
2026-05-06 02:15 44.33237 -62.78920 39131 ft 506 kts 70°
2026-05-06 02:15 44.35616 -62.69649 39130 ft 506 kts 70°
2026-05-06 02:16 44.37985 -62.60382 39131 ft 506 kts 70°
2026-05-06 02:16 44.40348 -62.51105 39133 ft 506 kts 70°
2026-05-06 02:17 44.42688 -62.41878 39136 ft 506 kts 70°
2026-05-06 02:17 44.45035 -62.32583 39136 ft 507 kts 70°
2026-05-06 02:18 44.47376 -62.23282 39133 ft 507 kts 70°
2026-05-06 02:18 44.49710 -62.13968 39146 ft 507 kts 71°
2026-05-06 02:19 44.52036 -62.04647 39141 ft 507 kts 71°
2026-05-06 02:19 44.54359 -61.95298 39145 ft 508 kts 71°
2026-05-06 02:20 44.57832 -61.81256 39145 ft 508 kts 71°
2026-05-06 02:21 44.60123 -61.71942 39153 ft 509 kts 71°
2026-05-06 02:21 44.62424 -61.62551 39149 ft 509 kts 71°
2026-05-06 02:22 44.64720 -61.53142 39148 ft 509 kts 71°
2026-05-06 02:22 44.67009 -61.43720 39155 ft 510 kts 71°
2026-05-06 02:23 44.69292 -61.34287 39153 ft 510 kts 71°
2026-05-06 02:23 44.71568 -61.24841 39159 ft 511 kts 71°
2026-05-06 02:24 44.73842 -61.15360 39144 ft 512 kts 71°
2026-05-06 02:24 44.76108 -61.05875 39155 ft 511 kts 71°
2026-05-06 02:25 44.78367 -60.96383 39161 ft 511 kts 72°
2026-05-06 02:25 44.80617 -60.86884 39163 ft 511 kts 72°
2026-05-06 02:26 44.82859 -60.77378 39165 ft 511 kts 72°
2026-05-06 02:26 44.85094 -60.67864 39164 ft 511 kts 72°
2026-05-06 02:27 44.87319 -60.58348 39156 ft 511 kts 72°
2026-05-06 02:27 44.89534 -60.48834 39167 ft 510 kts 72°
2026-05-06 02:28 44.91727 -60.39376 39166 ft 510 kts 72°
2026-05-06 02:28 44.93923 -60.29864 39174 ft 510 kts 72°
2026-05-06 02:29 44.96111 -60.20344 39174 ft 509 kts 72°
2026-05-06 02:29 44.98288 -60.10827 39174 ft 509 kts 72°
2026-05-06 02:30 45.00458 -60.01304 39182 ft 509 kts 72°
2026-05-06 02:30 45.02254 -59.93389 39174 ft 509 kts 72°
2026-05-06 02:31 45.04408 -59.83857 39184 ft 508 kts 72°
2026-05-06 02:31 45.06551 -59.74330 39182 ft 508 kts 72°
2026-05-06 02:32 45.08690 -59.64782 39180 ft 508 kts 72°
2026-05-06 02:32 45.10805 -59.55298 39185 ft 509 kts 72°
2026-05-06 02:33 45.12928 -59.45733 39183 ft 509 kts 72°
2026-05-06 02:33 45.13628 -59.42570 39184 ft 509 kts 72°
2026-05-06 02:34 45.17154 -59.26566 39187 ft 510 kts 72°
2026-05-06 02:34 45.19257 -59.16962 39195 ft 511 kts 72°
2026-05-06 02:35 45.21358 -59.07326 39192 ft 512 kts 72°
2026-05-06 02:35 45.23439 -58.97734 39191 ft 512 kts 73°
2026-05-06 02:36 45.25529 -58.88059 39199 ft 512 kts 73°
2026-05-06 02:36 45.27610 -58.78378 39199 ft 513 kts 73°
2026-05-06 02:37 45.29686 -58.68678 39201 ft 513 kts 73°
2026-05-06 02:37 45.31752 -58.58978 39204 ft 513 kts 73°
2026-05-06 02:38 45.33811 -58.49266 39199 ft 513 kts 73°
2026-05-06 02:38 45.35858 -58.39564 39207 ft 513 kts 73°
2026-05-06 02:39 45.37886 -58.29905 39223 ft 513 kts 73°
2026-05-06 02:39 45.39918 -58.20180 39211 ft 513 kts 73°
2026-05-06 02:40 45.41941 -58.10452 39202 ft 512 kts 73°
2026-05-06 02:40 45.43954 -58.00727 39211 ft 512 kts 73°
2026-05-06 02:41 45.45959 -57.90993 39219 ft 512 kts 73°
2026-05-06 02:41 45.47957 -57.81248 39226 ft 512 kts 73°
2026-05-06 02:42 45.49935 -57.71553 39215 ft 512 kts 73°
2026-05-06 02:42 45.51916 -57.61798 39220 ft 512 kts 73°
2026-05-06 02:43 45.53886 -57.52045 39204 ft 511 kts 73°
2026-05-06 02:43 45.55845 -57.42301 39239 ft 511 kts 73°
2026-05-06 02:44 45.57797 -57.32542 39227 ft 511 kts 73°
2026-05-06 02:44 45.59740 -57.22779 39222 ft 511 kts 73°
2026-05-06 02:45 45.61674 -57.13018 39231 ft 511 kts 73°
2026-05-06 02:45 45.63601 -57.03240 39231 ft 511 kts 73°
2026-05-06 02:46 45.65519 -56.93458 39238 ft 511 kts 73°
2026-05-06 02:46 45.67416 -56.83734 39231 ft 511 kts 73°
2026-05-06 02:47 45.69315 -56.73952 39234 ft 510 kts 73°
2026-05-06 02:47 45.71205 -56.64166 39234 ft 510 kts 73°
2026-05-06 02:48 45.73087 -56.54371 39243 ft 510 kts 73°
2026-05-06 02:48 45.74959 -56.44576 39233 ft 510 kts 73°
2026-05-06 02:49 45.76824 -56.34774 39239 ft 510 kts 73°
2026-05-06 02:49 45.78679 -56.24966 39239 ft 510 kts 73°
2026-05-06 02:50 45.80530 -56.15136 39243 ft 510 kts 73°
2026-05-06 02:50 45.82368 -56.05319 39242 ft 510 kts 73°
2026-05-06 02:51 45.84185 -55.95562 39238 ft 510 kts 74°
2026-05-06 02:51 45.86007 -55.85728 39252 ft 510 kts 74°
2026-05-06 02:52 45.87822 -55.75882 39250 ft 510 kts 74°
2026-05-06 02:52 45.89627 -55.66036 39250 ft 510 kts 74°
2026-05-06 02:53 45.91423 -55.56180 39259 ft 510 kts 73°
2026-05-06 02:53 45.93214 -55.46307 39253 ft 511 kts 74°
2026-05-06 02:54 45.94998 -55.36424 39259 ft 511 kts 74°
2026-05-06 02:54 45.96762 -55.26593 39258 ft 511 kts 74°
2026-05-06 02:55 45.98528 -55.16692 39270 ft 511 kts 73°
2026-05-06 02:55 46.00288 -55.06776 39266 ft 511 kts 74°
2026-05-06 02:56 46.02040 -54.96847 39253 ft 512 kts 74°
2026-05-06 02:56 46.03784 -54.86911 39263 ft 512 kts 74°
2026-05-06 02:57 46.05522 -54.76958 39268 ft 512 kts 74°
2026-05-06 02:57 46.07239 -54.67062 39275 ft 513 kts 73°
2026-05-06 02:58 46.08961 -54.57082 39274 ft 514 kts 74°
2026-05-06 02:58 46.10678 -54.47079 39263 ft 514 kts 74°
2026-05-06 02:59 46.12383 -54.37085 39261 ft 514 kts 74°
2026-05-06 02:59 46.14081 -54.27077 39265 ft 514 kts 74°
2026-05-06 03:00 46.15770 -54.17063 39272 ft 514 kts 73°
2026-05-06 03:00 46.17453 -54.07036 39274 ft 514 kts 74°
2026-05-06 03:01 46.19114 -53.97066 39268 ft 514 kts 74°
2026-05-06 03:01 46.20779 -53.87018 39267 ft 514 kts 74°
2026-05-06 03:02 46.22434 -53.76974 39284 ft 514 kts 74°
2026-05-06 03:02 46.24082 -53.66914 39261 ft 515 kts 74°
2026-05-06 03:03 46.25723 -53.56840 39269 ft 515 kts 74°
2026-05-06 03:03 46.27354 -53.46758 39266 ft 515 kts 74°
2026-05-06 03:04 46.28978 -53.36668 39267 ft 515 kts 74°
2026-05-06 03:04 46.30583 -53.26627 39285 ft 516 kts 74°
2026-05-06 03:05 46.32190 -53.16514 39271 ft 516 kts 74°
2026-05-06 03:05 46.33791 -53.06383 39267 ft 516 kts 74°
2026-05-06 03:06 46.35379 -52.96264 39266 ft 515 kts 74°
2026-05-06 03:06 46.36958 -52.86143 39284 ft 515 kts 74°
2026-05-06 03:07 46.38529 -52.76006 39280 ft 515 kts 74°
2026-05-06 03:07 46.40083 -52.65925 39269 ft 515 kts 74°
2026-05-06 03:08 46.41633 -52.55798 39262 ft 514 kts 74°
2026-05-06 03:08 46.43173 -52.45672 39274 ft 514 kts 74°
2026-05-06 03:09 46.44703 -52.35555 39290 ft 513 kts 74°
2026-05-06 03:09 46.46218 -52.25466 39281 ft 511 kts 74°
2026-05-06 03:10 46.47711 -52.15461 39278 ft 510 kts 74°
2026-05-06 03:10 46.49202 -52.05417 39278 ft 508 kts 74°
2026-05-06 03:11 46.51044 -51.95561 39276 ft 502 kts 65°